PHENX84 SPZO-SPZO

Flight info

Callsign PHENX84
Flight time 0h 16m
Altitude 14000
Route 1331S07141W
Aircraft EC45/L-SDFGRY/C

Departure

Time 2026-04-29 13:01
Airport Alejandro Velasco Astete International Airport (SPZO)

Arrival

Time 2026-04-29 13:18
Airport Alejandro Velasco Astete International Airport (SPZO)
Time Latitude Longitude Altitude Speed Heading
2026-04-29 12:56 -13.51602 -71.66028 13132 ft 0 kts 179°
2026-04-29 12:59 -13.51604 -71.66028 13108 ft 0 kts 179°
2026-04-29 12:59 -13.51606 -71.66027 13106 ft 0 kts 179°
2026-04-29 12:59 -13.51608 -71.66026 13105 ft 0 kts 179°
2026-04-29 13:01 -13.51600 -71.66027 13107 ft 3 kts 180°
2026-04-29 13:01 -13.51568 -71.66044 13142 ft 7 kts 181°
2026-04-29 13:01 -13.51523 -71.66069 13118 ft 12 kts 347°
2026-04-29 13:01 -13.51273 -71.65989 13031 ft 72 kts 20°
2026-04-29 13:02 -13.50739 -71.66011 13036 ft 91 kts 343°
2026-04-29 13:02 -13.50021 -71.66214 12842 ft 115 kts 346°
2026-04-29 13:02 -13.49240 -71.66574 12631 ft 131 kts 308°
2026-04-29 13:02 -13.49260 -71.67421 12449 ft 130 kts 237°
2026-04-29 13:03 -13.49776 -71.68183 12314 ft 130 kts 226°
2026-04-29 13:03 -13.50514 -71.68744 11997 ft 139 kts 209°
2026-04-29 13:03 -13.51018 -71.69153 11815 ft 140 kts 230°
2026-04-29 13:03 -13.51511 -71.70011 11610 ft 136 kts 236°
2026-04-29 13:04 -13.52438 -71.70830 11430 ft 130 kts 195°
2026-04-29 13:04 -13.53042 -71.70902 11289 ft 135 kts 186°
2026-04-29 13:04 -13.54321 -71.70803 10974 ft 136 kts 194°
2026-04-29 13:04 -13.55063 -71.71379 10795 ft 134 kts 213°
2026-04-29 13:05 -13.55920 -71.71625 10795 ft 122 kts 193°
2026-04-29 13:05 -13.56418 -71.71865 10769 ft 122 kts 225°
2026-04-29 13:05 -13.57039 -71.72421 10737 ft 114 kts 186°
2026-04-29 13:05 -13.57652 -71.71898 10540 ft 122 kts 124°
2026-04-29 13:06 -13.58097 -71.71157 10491 ft 122 kts 119°
2026-04-29 13:06 -13.58711 -71.70607 10483 ft 117 kts 147°
2026-04-29 13:06 -13.59455 -71.70400 10494 ft 109 kts 174°
2026-04-29 13:06 -13.59305 -71.70067 10543 ft 97 kts 334°
2026-04-29 13:07 -13.58730 -71.70560 10494 ft 113 kts 321°
2026-04-29 13:07 -13.58215 -71.71124 10516 ft 107 kts 275°
2026-04-29 13:07 -13.58607 -71.71685 10606 ft 101 kts 213°
2026-04-29 13:07 -13.59180 -71.72085 10663 ft 101 kts 222°
2026-04-29 13:08 -13.59819 -71.72518 10502 ft 122 kts 210°
2026-04-29 13:08 -13.60533 -71.72959 10341 ft 106 kts 214°
2026-04-29 13:08 -13.60822 -71.73358 10396 ft 45 kts 256°
2026-04-29 13:08 -13.60936 -71.73793 10407 ft 78 kts 259°
2026-04-29 13:09 -13.60869 -71.74317 10599 ft 75 kts 296°
2026-04-29 13:09 -13.60663 -71.74849 10662 ft 89 kts 291°
2026-04-29 13:09 -13.60402 -71.75491 10629 ft 102 kts 291°
2026-04-29 13:09 -13.60098 -71.76169 10489 ft 115 kts 297°
2026-04-29 13:10 -13.59673 -71.76977 10453 ft 135 kts 297°
2026-04-29 13:10 -13.59242 -71.77831 10445 ft 133 kts 296°
2026-04-29 13:10 -13.58856 -71.78667 10439 ft 130 kts 295°
2026-04-29 13:10 -13.58502 -71.79484 10458 ft 113 kts 294°
2026-04-29 13:11 -13.58228 -71.80144 10461 ft 91 kts 296°
2026-04-29 13:11 -13.57977 -71.80679 10471 ft 73 kts 298°
2026-04-29 13:11 -13.57768 -71.81100 10483 ft 63 kts 298°
2026-04-29 13:11 -13.57560 -71.81500 10494 ft 64 kts 298°
2026-04-29 13:12 -13.57344 -71.81908 10492 ft 73 kts 300°
2026-04-29 13:12 -13.57063 -71.82438 10571 ft 89 kts 298°
2026-04-29 13:12 -13.56770 -71.82988 10557 ft 87 kts 298°
2026-04-29 13:12 -13.56513 -71.83547 10561 ft 87 kts 294°
2026-04-29 13:13 -13.56275 -71.84118 10562 ft 87 kts 293°
2026-04-29 13:13 -13.56041 -71.84690 10574 ft 87 kts 293°
2026-04-29 13:13 -13.55790 -71.85256 10628 ft 88 kts 297°
2026-04-29 13:13 -13.55474 -71.85790 10629 ft 87 kts 303°
2026-04-29 13:14 -13.55171 -71.86327 10643 ft 87 kts 298°
2026-04-29 13:14 -13.54952 -71.86875 10782 ft 77 kts 290°
2026-04-29 13:14 -13.54780 -71.87368 10770 ft 72 kts 290°
2026-04-29 13:14 -13.54634 -71.87815 10786 ft 59 kts 286°
2026-04-29 13:15 -13.54531 -71.88193 10819 ft 53 kts 286°
2026-04-29 13:15 -13.54430 -71.88561 10838 ft 54 kts 285°
2026-04-29 13:15 -13.54327 -71.88933 10846 ft 54 kts 286°
2026-04-29 13:15 -13.54200 -71.89296 10861 ft 55 kts 294°
2026-04-29 13:16 -13.54021 -71.89637 10879 ft 54 kts 298°
2026-04-29 13:16 -13.53829 -71.90013 10876 ft 73 kts 298°
2026-04-29 13:16 -13.53557 -71.90575 10889 ft 101 kts 292°
2026-04-29 13:16 -13.53320 -71.91256 10888 ft 100 kts 281°
2026-04-29 13:17 -13.53229 -71.91961 10892 ft 100 kts 275°
2026-04-29 13:17 -13.53143 -71.92670 10915 ft 100 kts 278°
2026-04-29 13:17 -13.53018 -71.93372 10976 ft 100 kts 283°
2026-04-29 13:17 -13.52860 -71.94072 11051 ft 101 kts 282°
2026-04-29 13:18 -13.52693 -71.94768 11103 ft 100 kts 284°
2026-04-29 13:18 -13.52547 -71.95437 11132 ft 84 kts 285°
2026-04-29 13:18 -13.52432 -71.95792 11127 ft 14 kts 290°
2026-04-29 13:18 -13.52456 -71.95939 11148 ft 34 kts 286°
2026-04-29 13:19 -13.52498 -71.96061 11035 ft 4 kts 291°
2026-04-29 13:19 -13.52487 -71.96066 11004 ft 1 kts 292°
2026-04-29 13:19 -13.52488 -71.96069 10986 ft 0 kts 291°
2026-04-29 13:24 -13.52490 -71.96068 10991 ft 1 kts 288°
2026-04-29 13:24 -13.52493 -71.96076 11065 ft 4 kts 239°
2026-04-29 13:24 -13.52650 -71.96105 11118 ft 52 kts 175°
2026-04-29 13:25 -13.52971 -71.95681 11056 ft 92 kts 115°
2026-04-29 13:25 -13.53646 -71.94573 10857 ft 63 kts 133°
2026-04-29 13:25 -13.53743 -71.94511 10803 ft 0 kts 281°
2026-04-29 13:26 -13.53744 -71.94511 10798 ft 0 kts 286°